Simultaneous Nadir Overpasses (SNOs) Predictions

Prediction of SNOs between GOES-16 and NOAA-20 Satellite Orbit:

Table of predicted SNOs for the next 14.0 days since TLE Epoch: 1/15/2022
Index Date Time (GOES-16) GOES-16 Lat,Lon NOAA-20 Lat,Lon Distance(km) Time Diff (sec)
1 01/15/2022 18:22:00 0.04, -75.19 0.29, -74.02 132.51 80
2 01/17/2022 06:43:51 -0.04, -75.18 0.86, -79.30 469.14 80
3 01/18/2022 06:22:27 -0.04, -75.18 -0.13, -74.77 46.65 80
4 01/20/2022 18:25:43 0.04, -75.19 -0.02, -75.56 42.43 80
5 01/21/2022 18:09:40 0.04, -75.19 0.97, -71.03 474.04 80
6 01/23/2022 06:31:30 -0.04, -75.20 0.18, -76.31 126.20 80
7 01/24/2022 06:10:06 -0.04, -75.21 -0.82, -71.78 390.44 80
8 01/25/2022 18:32:05 0.04, -75.22 -0.38, -77.09 213.70 80
9 01/26/2022 18:16:01 0.03, -75.22 0.61, -72.56 303.22 80
10 01/28/2022 06:37:51 -0.03, -75.24 0.53, -77.84 296.19 80
